Flag for Germany Weather past 2 weeks in Laatzen, Lower Saxony, Germany

Now
42 °F

Partly sunny.


Feels Like: 34 °F
Forecast: 39 / 49 °F
Wind: 14 mph from Northwest

Location: Hannover

Current Time: Mar 30, 2015 at 12:45:52 PM

Latest Report: Mar 30, 2015 at 12:00 PM


Visibility: 8 mi

Pressure: 29.41 "Hg

Humidity: 76%

Dew point: 35 °F

Location of LaatzenLocation

Historic Weather in Laatzen — Graph

°F

Laatzen temperature yesterday

Maximum temperature yesterday: 52 °F (at 6:00 AM)
Minimum temperature yesterday: 48 °F (at 2:00 PM)
Average temperature yesterday: 50 °F

Past Weeks' High & Low Weather Summary

 TemperatureHumidityPressure
High60 °F (Mar 25, 5:00 PM)99% (Mar 21, 12:00 AM)30.42 "Hg (Mar 21, 12:00 AM)
Low28 °F (Mar 20, 6:00 AM)37% (Mar 19, 4:00 PM)29.06 "Hg (Mar 29, 10:00 PM)
Average43 °F76%30.03 "Hg
* Reported Mar 15 11:00 AM — Mar 30 12:00 Noon, Laatzen, Weather by CustomWeather, © 2015

Note: Actual official high and low records may vary slightly from our data, if they occured in-between our weather recording intervals... More about our weather records

Advertising

Laatzen weather history for previous 24 hours

 ConditionsComfort  
Time TempWeatherWind HumidityBarometerVisibility
12:00 PM
Mon, Mar 30
42 °FPartly sunny.14 mph76%29.41 "Hg8 mi
10:00 AM43 °FPartly sunny.12 mph67%29.35 "Hg25 mi
9:00 AM42 °FScattered clouds.13 mph74%29.32 "Hg22 mi
8:00 AM40 °FScattered clouds.13 mph80%29.32 "Hg22 mi
7:00 AM40 °FPassing clouds.9 mph82%29.29 "Hg25 mi
6:00 AM41 °FLow clouds.12 mph89%29.26 "Hg9 mi
5:00 AM42 °FLight rain. Overcast.9 mph88%29.23 "Hg11 mi
4:00 AM42 °FLight rain. Overcast.12 mph87%29.26 "Hg11 mi
3:00 AM44 °FPassing clouds.12 mph80%29.23 "Hg11 mi
2:00 AM44 °FPassing clouds.13 mph79%29.23 "Hg11 mi
1:00 AM43 °FPassing clouds.14 mph81%29.21 "Hg9 mi
12:00 AM43 °FLight rain. Overcast.17 mph86%29.18 "Hg9 mi
10:00 PM
Sun, Mar 29
51 °FOvercast.12 mph76%29.06 "Hg6 mi
9:00 PM52 °FOvercast.9 mph85%29.09 "Hg6 mi
8:00 PM50 °FLight rain. Overcast.8 mph91%29.12 "Hg6 mi
7:00 PM49 °FLight rain. Overcast.7 mph92%29.18 "Hg8 mi
6:00 PM49 °FLight rain. Overcast.6 mph93%29.23 "Hg9 mi
4:00 PM49 °FLight rain. Overcast.7 mph88%29.35 "Hg9 mi
3:00 PM49 °FLight rain. Low clouds.6 mph91%29.41 "Hg9 mi
2:00 PM48 °FLight rain. Low clouds.6 mph90%29.44 "Hg10 mi
1:00 PM49 °FRain. Low clouds.8 mph83%29.47 "Hg47 mi
12:00 PM49 °FRain. Low clouds.8 mph85%29.50 "Hg5 mi
Weather by CustomWeather, © 2015

See weather overviewHow to use our weather pages